New Orleans Lakefront, LA

10:29 AM CDT on April 27, 2017 (GMT -0500)
Lakefront

Weather History for KNEW - October, 2012

Change the Weather History Date:

Friday, October 12, 2012

  Actual Average Record
Temperature  
Mean Temperature 74 °F 72 °F  
Max Temperature 84 °F 81 °F 91 °F (1991)
Min Temperature 63 °F 64 °F 46 °F (1976)
Degree Days  
Heating Degree Days 0 0  
Month to date heating degree days 0 0  
Since 1 July heating degree days 0 0  
Cooling Degree Days 9 8  
Month to date cooling degree days 82 113  
Year to date cooling degree days 3223 2802  
Growing Degree Days 24 (Base 50)    
Moisture  
Dew Point 67 °F    
Average Humidity 79    
Maximum Humidity 100    
Minimum Humidity 58    
Precipitation  
Precipitation 0.00 in 0.10 in 2.84 in (1983)
Month to date precipitation T 1.32  
Year to date precipitation 60.25 50.50  
Snow  
Snow 0.00 in - - ()
Month to date snowfall 0.0  
Since 1 July snowfall 0.0  
Since 1 September snowfall 0.0  
Snow Depth 0.00 in    
Sea Level Pressure  
Sea Level Pressure 30.20 in    
Wind  
Wind Speed 6 mph (East)    
Max Wind Speed 14 mph    
Max Gust Speed 18 mph    
Visibility 8 miles    
Events      
T = Trace of Precipitation, MM = Missing Value Source: NWS Daily Summary

Daily Weather History Graph

Daily Weather History Graph

Search for Another Location

Airport or City:

Trip Planner

Search our weather history database for the weather conditions in past years. The results will help you decide how hot, cold, wet, or windy it might be!

Date:

Astronomy

Oct. 12, 2012 Rise Set
Actual Time 7:00 AM CDT 6:32 PM CDT
Civil Twilight 6:36 AM CDT 6:56 PM CDT
Nautical Twilight 6:08 AM CDT 7:23 PM CDT
Astronomical Twilight 5:40 AM CDT 7:51 PM CDT
Moon 3:55 AM CDT (10/12) 4:32 PM CDT (10/12)
Length of Visible Light 12h 19m
Length of Day
11h 31m
Waning Crescent, 10% of the Moon is Illuminated
Oct 12
Waning Crescent
Oct 15
New
Oct 21
First Quarter
Oct 29
Full
Nov 6
Last Quarter

Hourly Weather History & Observations

Time (CDT) Temp. Heat Index Dew Point Humidity Pressure Visibility Wind Dir Wind Speed Gust Speed Precip Events Conditions
12:53 AM 69.8 °F - 66.2 °F 88% 30.19 in 8.0 mi East 3.5 mph - N/A   Clear
1:53 AM 70.0 °F - 66.9 °F 90% 30.17 in 7.0 mi Calm Calm - N/A   Clear
2:53 AM 71.6 °F - 68.0 °F 88% 30.18 in 8.0 mi East 6.9 mph - N/A   Clear
3:53 AM 69.1 °F - 68.0 °F 96% 30.16 in 4.0 mi ESE 4.6 mph - N/A   Clear
4:53 AM 70.0 °F - 69.1 °F 97% 30.16 in 6.0 mi East 5.8 mph - N/A   Clear
5:53 AM 70.0 °F - 68.0 °F 93% 30.17 in 7.0 mi East 6.9 mph - N/A   Clear
6:53 AM 69.1 °F - 68.0 °F 96% 30.18 in 6.0 mi East 8.1 mph - N/A   Clear
7:53 AM 70.0 °F - 68.0 °F 93% 30.20 in 6.0 mi ENE 9.2 mph - N/A   Clear
8:53 AM 71.1 °F - 66.9 °F 87% 30.23 in 6.0 mi East 9.2 mph - N/A   Partly Cloudy
9:53 AM 73.0 °F - 66.9 °F 81% 30.24 in 8.0 mi ENE 10.4 mph - N/A   Mostly Cloudy
10:53 AM 75.2 °F - 68.0 °F 78% 30.27 in 8.0 mi East 11.5 mph - N/A   Partly Cloudy
11:53 AM 77.0 °F - 66.9 °F 71% 30.25 in 8.0 mi ENE 10.4 mph - N/A   Overcast
12:05 PM 77.0 °F - 66.2 °F 69% 30.26 in 9.0 mi ENE 10.4 mph - N/A   Overcast
12:18 PM 77.0 °F - 68.0 °F 74% 30.26 in 9.0 mi ENE 10.4 mph - N/A   Overcast
12:53 PM 79.0 °F - 68.0 °F 69% 30.23 in 9.0 mi East 9.2 mph - N/A   Overcast
1:03 PM 78.8 °F - 66.2 °F 65% 30.25 in 9.0 mi East 9.2 mph - N/A   Mostly Cloudy
1:53 PM 78.1 °F - 68.0 °F 71% 30.20 in 9.0 mi ENE 10.4 mph - N/A   Mostly Cloudy
2:53 PM 79.0 °F - 68.0 °F 69% 30.19 in 10.0 mi NE 8.1 mph - N/A   Overcast
3:53 PM 80.1 °F 82.1 °F 66.0 °F 62% 30.18 in 10.0 mi East 6.9 mph - N/A   Scattered Clouds
4:53 PM 79.0 °F - 64.9 °F 62% 30.17 in 10.0 mi ESE 8.1 mph - N/A   Partly Cloudy
5:53 PM 77.0 °F - 66.0 °F 69% 30.18 in 9.0 mi ESE 10.4 mph - N/A   Clear
6:53 PM 75.0 °F - 66.0 °F 73% 30.18 in 10.0 mi ESE 9.2 mph - N/A   Clear
7:53 PM 73.9 °F - 66.0 °F 76% 30.19 in 9.0 mi SE 5.8 mph - N/A   Clear
8:53 PM 71.6 °F - 66.2 °F 83% 30.20 in 9.0 mi SSE 6.9 mph - N/A   Clear
9:53 PM 70.0 °F - 66.0 °F 87% 30.19 in 7.0 mi South 5.8 mph - N/A   Clear
10:53 PM 70.0 °F - 66.0 °F 87% 30.19 in 7.0 mi SSE 3.5 mph - N/A   Clear
11:53 PM 69.1 °F - 66.9 °F 93% 30.17 in 7.0 mi SSE 4.6 mph - N/A   Clear